Creek Data

    Home     View Charts     View Raw Data     Messages

ID Distance Battery Voltage Battery Current Internal Temp Internal Humidity External Temp Solar Input rssi snr Time Stamp Record
34291 15.1 3.94 -5 37 38 39 0 -74 8 03/07/2025 05:00 AM 16013
34290 15.2 4.00 -5 37 38 39 0 -74 9 03/07/2025 04:45 AM 16012
34289 15.1 4.00 -5 37 38 39 0 -74 8 03/07/2025 04:30 AM 16011
34288 15.1 4.00 -5 37 38 38 0 -74 8 03/07/2025 04:15 AM 16010
34287 15.1 3.94 -5 37 38 38 0 -75 7 03/07/2025 04:00 AM 16009
34286 0.0 3.94 -5 37 38 40 0 -75 8 03/07/2025 03:45 AM 16008
34285 15.1 3.94 -5 37 38 40 0 -74 8 03/07/2025 03:30 AM 16007
34284 15.1 3.94 -35 37 38 37 0 -75 9 03/07/2025 03:15 AM 16006
34283 15.1 4.00 -5 38 38 40 0 -75 8 03/07/2025 03:00 AM 16005
34282 15.1 3.94 -21 38 38 40 0 -76 9 03/07/2025 02:45 AM 16004
34281 15.1 3.95 -5 38 38 42 0.1 -76 8 03/07/2025 02:30 AM 16003
34280 15.1 3.95 -5 38 38 41 0 -75 8 03/07/2025 02:15 AM 16002
34279 15.1 4.01 -5 38 38 41 0.1 -75 9 03/07/2025 02:00 AM 16001
34278 15.1 4.01 -5 37 38 41 0 -75 9 03/07/2025 01:45 AM 16000
34277 15.0 3.95 -5 37 38 39 0 -76 8 03/07/2025 01:30 AM 15999
34276 15.2 3.95 -5 37 39 38 0 -76 8 03/07/2025 01:15 AM 15998
34275 15.1 3.95 -5 38 39 40 0 -76 8 03/07/2025 01:00 AM 15997
34274 15.1 3.95 -5 38 39 40 0 -75 8 03/07/2025 12:45 AM 15996
34273 15.1 4.01 -5 39 38 39 0 -76 8 03/07/2025 12:30 AM 15995
34272 15.1 4.01 -5 40 38 43 0.1 -76 8 03/07/2025 12:15 AM 15994
34271 15.1 3.95 -5 40 38 42 0 -75 8 03/07/2025 12:00 AM 15993
34270 15.0 3.95 -5 40 38 43 0 -76 8 03/06/2025 11:45 PM 15992
34269 15.0 3.96 -5 40 38 43 0 -76 8 03/06/2025 11:30 PM 15991
34268 15.1 4.01 -5 41 38 43 0.1 -76 8 03/06/2025 11:15 PM 15990
34267 15.1 4.01 -5 40 38 44 0 -76 8 03/06/2025 11:00 PM 15989